Back to catalog

FENGYUN 1C DEB

AlivePO
NORAD 31964·DEBRIS·🇨🇳 China

Launched May 10, 1999 from Taiyuan Satellite Launch Center

Loading…

Next Passes (next 24 hours)

TLE

FreshSource: Space-Track

Epoch: Sep 13, 2026, 20:07 UTC

1 31964U 99025CNR 26256.83871479  .00007711  00000-0  14585-2 0  9997
2 31964  98.7155  40.0366 0026409 261.6879  98.1327 14.64448483715299

Track FENGYUN 1C DEB in real time with AllMySat

Download on the App Store